Regional Weather Roundup
Issued by NWS Jackson, KY

Home | Current Version | Previous Version | Graphics & Text | Print | Product List | Glossary On
Versions: 1 2 3 4 5 6 7 8 9 10 11 12 13 14 15 16 17 18 19 20 21 22 23 24 25 26 27 28 29 30 31 32 33 34 35 36 37 38 39 40 41 42 43 44 45 46 47 48 49 50
000
ASUS43 KJKL 051110
RWRJKL

EAST KENTUCKY HOURLY WEATHER ROUNDUP
NATIONAL WEATHER SERVICE JACKSON KY
700 AM EDT THU MAY 05 2016

NOTE: "FAIR" INDICATES FEW OR NO CLOUDS BELOW 12,000 FEET WITH
NO SIGNIFICANT WEATHER AND/OR OBSTRUCTIONS TO VISIBILITY.

* THESE REPORTS ARE NOT UNDER NWS QUALITY CONTROL AND MAY NOT
  REPORT WEATHER SUCH AS PRECIPITATION AND FOG.

KYZ079-080-083-085-087-088-110-112-115-119-120-051200
...EASTERN KENTUCKY...

CITY           SKY/WX    TMP DP  RH WIND       PRES   REMARKS
JACKSON        LGT RAIN  42  40  92 CALM      29.73S VSB 1/4
LONDON         CLOUDY    43  40  89 CALM      29.74R
SOMERSET*      LGT RAIN  43  41  93 W3        29.77R
MONTICELLO*    LGT RAIN  45  43  93 W15       29.78S
WILLIAMSBURG*  CLOUDY    45  45 100 CALM      29.75S
MIDDLESBORO*   PTCLDY    41  41 100 CALM      29.76R
HARLAN APT*    CLOUDY    41  41 100 CALM      29.74R
HAZARD APT*    CLOUDY    43  43 100 CALM      29.74R
BLACK MTN*       N/A     32  34 100 VRB3        N/A
PIKE CO APT*     N/A     39  39 100 CALM      29.73R
BIG SANDY APT* SUNNY     40  39  97 CALM      29.74R
MOREHEAD APT*  MIX PCPN  43  39  87 CALM      29.76R
$$

KYZ035-036-041-042-044-050-067-078-099-051200
...CENTRAL KENTUCKY...

CITY           SKY/WX    TMP DP  RH WIND       PRES   REMARKS
MT STERLING*   DRIZZLE   43  41  93 CALM      29.75R
FLEMING/MASON* CLOUDY    42  40  90 CALM      29.75R
DANVILLE*      DRIZZLE   43  41  93 W5        29.76R
RICHMOND*      CLOUDY    43  39  87 NW6       29.74R
LEXINGTON      CLOUDY    42  39  89 NW6       29.75R
FRANKFORT      LGT RAIN  43  39  86 N7        29.74R
LOUISVILLE     LGT RAIN  46  40  79 N9        29.77R
LEBANON*       PTSUNNY   45  43  93 CALM      29.75S
BOWLING GREEN  CLOUDY    48  42  80 CALM      29.79R
$$

KYZ091>093-OHZ055-061-077-WVZ005-015-034-035-042-051200
...SOUTHERN OHIO/WEST VIRGINIA...

CITY           SKY/WX    TMP DP  RH WIND       PRES   REMARKS
COVINGTON      CLOUDY    41  38  89 N7        29.75R
COLUMBUS       PTCLDY    41  37  86 NW7       29.74R
DAYTON         CLOUDY    39  38  96 N6        29.77R WCI  35
WILMINGTON     CLOUDY    41  36  82 NW5       29.75R
HUNTINGTON     CLOUDY    44  39  82 CALM      29.73R
CHARLESTON     CLOUDY    45  40  82 W5        29.71R
PINEVILLE*     CLOUDY    45  41  86 MISG      29.74R
BECKLEY        LGT RAIN  42  39  89 NW6       29.67R
$$

VAZ002-007-008-TNZ017-027-036-066-071-051200
...SOUTHWEST VIRGINIA/EAST TENNESSEE...

CITY           SKY/WX    TMP DP  RH WIND       PRES   REMARKS
WISE*          CLOUDY    39  37  93 NW5       29.72R
BRISTOL        PTCLDY    43  40  89 NW5       29.72R
MORRISTOWN*    SUNNY     45  41  87 NW6       29.74R
SEVIERVILLE*   MOSUNNY   45  43  93 CALM      29.75R
KNOXVILLE      PTCLDY    46  44  93 W3        29.76R
OAK RIDGE      MOCLDY    46  44  93 CALM      29.77R
CROSSVILLE     CLEAR     40  39  97 W5        29.77R
NASHVILLE      PTCLDY    45  40  82 SW3       29.81S
$$

...KEY TO REMARKS...
VSB - VISIBILITY IN MILES
WCI - WIND CHILL INDEX
HX  - HEAT INDEX

$$



USA.gov is the U.S. government's official web portal to all federal, state and local government web resources and services.